Aérodrome :
LOGIN :

S'inscrire | Disclaimer

   EN    FR    IT 

 










Légende :    VFR   VFR Marginal   IFR   IFR Intensif   IFR Très Intensif
Visi : 
Plafond : 
>= 8 km
>= 3000ft
5 à 8 km
1000 à 3000 ft
1500m à 5 km
500 à 1000 ft
800 à 1500m
200 à 500 ft
< 800m
< 200 ft
Symboles :   Orages  Brouillard  Fortes neiges  Fortes précipitations  Vent > 20 kt
SIGMETs :   Divers  Orages  Givrage  Turbulence  Onde Orograph.  Cendres Volcan.






- Altitude de l'aérodrome : 989 ft
- Code IATA : TRN


LIMF - Torino Caselle

DERNIER METAR :
  • 240550Z 27004KT 240V300 8000 NSC 04/02 Q1019

METARs EXPIRÉS :
  • 240520Z 31003KT 260V010 8000 NSC 04/03 Q1019
  • 240450Z 01004KT 8000 NSC 02/02 Q1019
  • 240420Z 23003KT 190V280 8000 NSC 04/03 Q1019
  • 240350Z VRB02KT 8000 NSC 03/02 Q1019
  • 240320Z VRB02KT 8000 NSC 04/03 Q1019

TAF TAF LIMF
Valide du 24 à 06h jusqu'au 25 à 06h UTC


240500Z 2406/2506 30005KT 6000 NSC



MET'MAP, la Météo Aéronautique d'un coup d'oeil ! - Copyright ORBIFLY Décembre 2007 - Disclaimer

ORBIFLY MET'MAP TEAM :

Programmation & Développement : Alexandra Zaïnal
Sur une idée originale de : Baudouin d'Aumeries
Assistance à la programmation : Marc-Olivier Méhu
Soutien technique & logistique : Manuel Goepfert

Contact : metmap@orbifly.com




SOURCES & CREDITS :

   NOAA